This is the latest recevied weather packets stored in our database for station/object MEGLR. If no packets are shown the sender has not sent any weather packets the latest 1 day(s).
| Time | Temp. | Humidity | Pressure | Rain* | Wind** | Luminosity | Snow |
|---|---|---|---|---|---|---|---|
| 1778001603 | 11.67° C | 88% | 0 hPa | - | 3.58 m/s, 225° | - | - |
| 1778001003 | 11.67° C | 88% | 0 hPa | - | 2.68 m/s, 225° | - | - |
| 1778000404 | 11.67° C | 89% | 0 hPa | - | 3.13 m/s, 215° | - | - |
| 1777999803 | 11.67° C | 88% | 0 hPa | - | 4.02 m/s, 220° | - | - |
| 1777999202 | 11.67° C | 89% | 0 hPa | - | 2.68 m/s, 230° | - | - |
| 1777998603 | 11.67° C | 87% | 0 hPa | - | 1.34 m/s, 190° | - | - |
| 1777998003 | 12.22° C | 88% | 0 hPa | - | 0.45 m/s, 210° | - | - |
| 1777997403 | 12.22° C | 89% | 0 hPa | - | 0.45 m/s, 160° | - | - |
| 1777996804 | 11.67° C | 90% | 0 hPa | - | 1.79 m/s, 155° | - | - |
| 1777996203 | 11.67° C | 91% | 0 hPa | - | 1.79 m/s, 200° | - | - |
| 1777995603 | 11.67° C | 91% | 0 hPa | - | 1.79 m/s, 195° | - | - |
| 1777995003 | 11.67° C | 92% | 0 hPa | - | 1.79 m/s, 205° | - | - |
| 1777994403 | 11.67° C | 91% | 0 hPa | - | 1.79 m/s, 200° | - | - |
| 1777993803 | 11.67° C | 91% | 0 hPa | - | 2.68 m/s, 205° | - | - |
| 1777993203 | 11.11° C | 92% | 0 hPa | - | 3.13 m/s, 200° | - | - |
| 1777992603 | 11.11° C | 93% | 0 hPa | - | 3.13 m/s, 200° | - | - |
| 1777992003 | 11.11° C | 93% | 0 hPa | - | 2.68 m/s, 200° | - | - |
| 1777991403 | 11.67° C | 92% | 0 hPa | - | 1.79 m/s, 215° | - | - |
| 1777990802 | 11.67° C | 92% | 0 hPa | - | 2.24 m/s, 210° | - | - |
| 1777990203 | 11.67° C | 91% | 0 hPa | - | 2.24 m/s, 200° | - | - |
| 1777989603 | 11.67° C | 91% | 0 hPa | - | 1.79 m/s, 195° | - | - |
| 1777989003 | 11.67° C | 92% | 0 hPa | - | 2.68 m/s, 195° | - | - |
| 1777988403 | 11.11° C | 92% | 0 hPa | - | 3.13 m/s, 200° | - | - |
| 1777987804 | 11.67° C | 92% | 0 hPa | - | 2.24 m/s, 200° | - | - |
| 1777987203 | 11.67° C | 92% | 0 hPa | - | 3.13 m/s, 205° | - | - |
* Rain since midnight (hover to see other rain measurements)
** Current wind speed in m/s (hover to see current wind gust speed)